AirNav   ProFlight Series 2 Aviation Headset
 
 472 users online  

KNFE Fentress Naval Auxiliary Field
Fentress, Virginia, USA

GOING TO FENTRESS?


FAA INFORMATION EFFECTIVE 16 JULY 2020

Location

FAA Identifier: NFE
Lat/Long: 36-41-31.3310N 076-08-04.4305W
36-41.522183N 076-08.073842W
36.6920364,-76.1345640
(estimated)
Elevation: 16 ft. / 5 m (estimated)
Variation: 09W (1985)
Time zone: UTC -4 (UTC -5 during Standard Time)
Zip code: 23322

Airport Operations

Airport use: Private use. Permission required prior to landing
Activation date: 08/1943
Control tower: no
ARTCC: WASHINGTON CENTER
FSS: LEESBURG FLIGHT SERVICE STATION
Attendance: UNATNDD
Segmented circle: no
Lights: RY LGTS OPERATED BY CRASH CREW DURING SCHEDULED OPNS.

Airport Communications

OCEANA APPROACH: 123.9
OCEANA DEPARTURE: 123.9
WX AWOS-3 at CPK (9 nm W): 123.675 (757-204-4290)
WX ASOS at NTU (9 nm NE): PHONE DSN 433-3619 or 757-433-3619
WX ASOS at ORF (13 nm N): PHONE 757-460-9348
WX AWOS-3PT at PVG (16 nm W): 118.375 (757-465-2175)
WX AWOS-3 at ONX (18 nm S): 119.775 (252-453-8939)

Nearby radio navigation aids

VOR radial/distance  VOR name  Freq  Var
ORFr172/12.4NORFOLK VORTAC116.9007W
ECGr011/26.1ELIZABETH CITY VOR/DME112.5007W
CCVr199/39.9CAPE CHARLES VORTAC112.2010W

 
NDB name  Hdg/Dist  Freq  Var  ID
INGLE157/10.532909WOR --- .-.
WOODVILLE027/26.925410WLLW .-.. .-.. .--

Airport Services

Runway Information

Runway 5/23

Dimensions: 8004 x 175 ft. / 2440 x 53 m
Surface: asphalt
Weight bearing capacity: 
PCN 40 /R/C/W/T
Runway edge lights: low intensity
RUNWAY 5  RUNWAY 23
Latitude: 36-41.014033N36-42.030333N
Longitude: 076-08.595917W076-07.551767W
Elevation: 14.5 ft.14.2 ft.
Traffic pattern: leftleft
Runway heading: 049 magnetic, 040 true228 magnetic, 219 true
Touchdown point: yes, no lightsyes, no lights

Airport Ownership and Management from official FAA records

Ownership: U.S. Navy
Owner: US NAVY
OCEANOGRAPHIC OFC - CODE 3142
WASHINGTON, DC 20373

Additional Remarks

FOR CD CTC WASHINGTON ARTCC AT 703-771-3587.

Instrument Procedures

There are no published instrument procedures at KNFE.

Some nearby airports with instrument procedures:

KCPK - Chesapeake Regional Airport (9 nm W)
KNTU - Oceana Naval Air Station (Apollo Soucek Field) (9 nm NE)
KORF - Norfolk International Airport (13 nm N)
KPVG - Hampton Roads Executive Airport (16 nm W)
KNGU - Norfolk Naval Station (Chambers Field) (16 nm NW)
KONX - Currituck County Regional Airport (18 nm S)
 
Loc | Ops | Rwys | IFR | FBO | Links
Com | Nav | Svcs | Stats | Notes
Area around KNFE (Fentress Naval Auxiliary Field)
 
Road maps at: MapQuest Bing Google
 
Aerial photo
WARNING: Photo may not be current or correct
Aerial photo of KNFE (Fentress Naval Auxiliary Field)
Do you have a better or more recent aerial photo of Fentress Naval Auxiliary Field that you would like to share? If so, please send us your photo.

 
Sectional chart

 
Airport distance calculator
Flying to Fentress Naval Auxiliary Field? Find the distance to fly.

From to KNFE

Sunrise and sunset
Times for 12-Aug-2020
 Local
(UTC-4)
 Zulu
(UTC)
Morning civil twilight05:5309:53
Sunrise06:2110:21
Sunset19:5823:58
Evening civil twilight20:2500:25

Current date and time
Zulu (UTC)  12-Aug-2020 06:26:09
Local (UTC-4)  12-Aug-2020 02:26:09
 
METAR
KNFE 120556Z AUTO 00000KT 9SM CLR 24/23 A2999 RMK AO2 SLP159 T02390233 10256 20233 55000
KCPK 
9nm W 
120615Z AUTO 00000KT 7SM CLR 23/22 A3000 RMK AO2 T02270221
KNTU 
9nm NE 
120556Z 24005KT 10SM CLR 25/23 A2998 RMK AO2 VIS 2 1/2 RWY 5R SLP156 T02500233 10267 20244 57000
KORF 
13nm N 
120551Z AUTO 22006KT 10SM CLR 25/23 A2999 RMK AO2 SLP155 T02500233 10267 20250 51001
KNGU 
15nm NW 
120559Z 19004KT 10SM CLR 26/23 A3001 RMK AO2 SLP160 T02560228 10261 20250 51003 $
KPVG 
16nm W 
120556Z AUTO 00000KT 9SM CLR 22/22 A3000 RMK AO2 TSB39E40 SLP161 6//// T02170217 10250 20217 50002 PNO $
KONX 
18nm S 
120615Z AUTO 00000KT 10SM CLR 24/24 A3000 RMK AO2 T02430243
TAF
KNTU 
9nm NE 
1123/1223 VRB06KT 9999 VCTS SCT015CB BKN050 BKN250 QNH2991INS TEMPO 1123/1201 VRB20G30KT 3200 TSRA BR BKN015CB BKN050 OVC120 FM120100 18006KT 9999 SCT050 BKN100 BKN250 QNH2991INS TEMPO 1205/1211 VRB04KT 1600 BR BKN003 BKN050 FM121300 17008KT 9999 BKN040 BKN300 QNH2995INS TEMPO 1217/1223 VRB20G30KT 3200 TSRA BKN020CB OVC120 T24/1210Z T31/1219Z FN20051
KORF 
13nm N 
120520Z 1206/1306 23006KT P6SM SKC TEMPO 1209/1212 5SM BR SCT005 FM121400 20004KT P6SM SCT040 FM121800 17007KT P6SM BKN040 FM130100 16009KT P6SM BKN090
KNGU 
15nm NW 
1123/1223 11008KT 9999 VCTS SCT010 BKN050 BKN250 QNH2992INS TEMPO 1123/1201 VRB15G25KT 6000 TSRA BR BKN030CB BKN250 FM120100 VRB03KT 9999 FEW250 QNH2994INS FM121800 11008KT 9999 VCTS SCT030CB BKN260 QNH2997INS TEMPO 1218/1223 VRB15G25KT 6000 -TSRA BR BKN030CB BKN260 T24/1210Z T32/1220Z FN20067
NOTAMs
Click for the latest NOTAMs
NOTAMs are issued by the DoD/FAA and will open in a separate window not controlled by AirNav.

 

 
 

Would you like to see your business listed on this page?

 If your business provides an interesting product or service to pilots, flight crews, aircraft, or users of the Fentress Naval Auxiliary Field, you should consider listing it here.  To start the listing process, click on the button below
 
Add a business
 

Other Pages about Fentress Naval Auxiliary Field

Update a link
 
Copyright © AirNav, LLC. All rights reserved. Privacy Policy  Contact